Danvers, MA

1:09 AM EST on January 22, 2017 (GMT -0500)
Beverly Municipal

Weather History for KBVY - December, 2012

Change the Weather History Date:

Tuesday, December 18, 2012

  Actual Average Record
Temperature  
Mean Temperature 46 °F -  
Max Temperature 52 °F 38 °F 57 °F (2016)
Min Temperature 39 °F 22 °F 8 °F (1979)
Degree Days  
Heating Degree Days 20    
Moisture  
Dew Point 45 °F    
Average Humidity 91    
Maximum Humidity 94    
Minimum Humidity 87    
Precipitation  
Precipitation 0.91 in - - ()
Sea Level Pressure  
Sea Level Pressure 29.51 in    
Wind  
Wind Speed 8 mph (East)    
Max Wind Speed 17 mph    
Max Gust Speed 30 mph    
Visibility 4 miles    
Events Rain    
Averages and records for this station are not official NWS values.
T = Trace of Precipitation, MM = Missing Value Source: NWS Daily Summary

Daily Weather History Graph

Daily Weather History Graph

Search for Another Location

Airport or City:

Trip Planner

Search our weather history database for the weather conditions in past years. The results will help you decide how hot, cold, wet, or windy it might be!

Date:

Astronomy

Dec. 18, 2012 Rise Set
Actual Time 7:08 AM EST 4:12 PM EST
Civil Twilight 6:36 AM EST 4:44 PM EST
Nautical Twilight 6:01 AM EST 5:20 PM EST
Astronomical Twilight 5:26 AM EST 5:54 PM EST
Moon 10:40 AM EST (12/18) 10:42 PM EST (12/18)
Length of Visible Light 10h 07m
Length of Day
9h 03m
Waxing Crescent, 34% of the Moon is Illuminated
Dec 18
Waxing Crescent
Dec 20
First Quarter
Dec 28
Full
Jan 4
Last Quarter
Jan 11
New

Hourly Weather History & Observations

Time (EST) Temp. Windchill Dew Point Humidity Pressure Visibility Wind Dir Wind Speed Gust Speed Precip Events Conditions
12:07 AM 42.8 °F 39.3 °F 41.0 °F 93% 29.80 in 2.0 mi NE 5.8 mph - 0.02 in Rain Light Rain
12:53 AM 39.9 °F 34.5 °F 37.9 °F 93% 29.77 in 3.0 mi North 8.1 mph - 0.07 in Rain Light Rain
1:06 AM 39.2 °F 33.6 °F 37.4 °F 93% 29.78 in 2.5 mi North 8.1 mph - 0.03 in Rain Rain
1:53 AM 41.0 °F 37.1 °F 39.0 °F 93% 29.75 in 2.0 mi North 5.8 mph - 0.14 in Rain Rain
2:26 AM 42.8 °F 40.1 °F 39.2 °F 87% 29.73 in 3.0 mi NNE 4.6 mph - 0.11 in Rain Rain
2:53 AM 46.0 °F 42.5 °F 44.1 °F 93% 29.69 in 3.0 mi ENE 6.9 mph - 0.19 in Rain Rain
3:07 AM 46.4 °F 42.9 °F 44.6 °F 93% 29.69 in 2.5 mi ENE 6.9 mph - 0.04 in Rain Rain
3:15 AM 46.4 °F 42.9 °F 44.6 °F 93% 29.69 in 3.0 mi ENE 6.9 mph - 0.05 in Rain Rain
3:44 AM 46.4 °F 42.9 °F 44.6 °F 93% 29.67 in 2.5 mi ENE 6.9 mph - 0.13 in Rain Rain
3:53 AM 46.9 °F - 45.0 °F 93% 29.66 in 2.5 mi Variable 5.8 mph - 0.15 in Rain Rain
4:53 AM 48.0 °F - 45.0 °F 89% 29.62 in 4.0 mi East 10.4 mph 18.4 mph 0.11 in Rain Light Rain
5:53 AM 48.0 °F - 45.0 °F 89% 29.59 in 3.0 mi East 12.7 mph 21.9 mph 0.04 in Rain Light Rain
6:45 AM 48.2 °F - 44.6 °F 87% 29.57 in 2.0 mi East 17.3 mph 28.8 mph 0.03 in Rain Rain
6:53 AM 48.0 °F - 45.0 °F 89% 29.55 in 2.5 mi East 15.0 mph 28.8 mph 0.04 in Rain Light Rain
7:08 AM 48.2 °F - 46.4 °F 93% 29.55 in 1.8 mi East 15.0 mph 26.5 mph 0.00 in Rain Light Rain
7:25 AM 48.2 °F - 46.4 °F 93% 29.55 in 2.0 mi East 11.5 mph 18.4 mph 0.01 in Rain Light Rain
7:42 AM 48.2 °F - 46.4 °F 93% 29.54 in 4.0 mi East 16.1 mph 23.0 mph 0.06 in Rain Rain
7:50 AM 48.2 °F - 46.4 °F 93% 29.54 in 3.0 mi East 9.2 mph 21.9 mph 0.07 in Rain Light Rain
7:53 AM 48.9 °F - 46.0 °F 90% 29.53 in 3.0 mi East 11.5 mph 18.4 mph 0.07 in Rain Light Rain
8:53 AM 50.0 °F - 46.9 °F 89% 29.49 in 10.0 mi East 13.8 mph 29.9 mph 0.08 in   Overcast
9:17 AM 50.0 °F - 48.2 °F 94% 29.50 in 4.0 mi ESE 12.7 mph 20.7 mph N/A   Overcast
9:53 AM 50.0 °F - 48.0 °F 93% 29.48 in 7.0 mi East 8.1 mph 18.4 mph 0.00 in Rain Light Rain
10:33 AM 51.8 °F - 48.2 °F 88% 29.47 in 1.8 mi East 10.4 mph - 0.00 in Rain Light Rain
10:49 AM 51.8 °F - 48.2 °F 88% 29.46 in 3.0 mi East 8.1 mph - 0.01 in   Overcast
10:53 AM 51.1 °F - 48.9 °F 92% 29.45 in 3.0 mi East 8.1 mph - 0.01 in   Overcast
11:17 AM 51.8 °F - 50.0 °F 94% 29.44 in 2.0 mi East 5.8 mph - N/A   Overcast
11:35 AM 51.8 °F - 50.0 °F 94% 29.44 in 1.5 mi ESE 8.1 mph - 0.00 in Rain Light Rain
11:53 AM 52.0 °F - 50.0 °F 93% 29.42 in 1.2 mi ESE 5.8 mph - 0.00 in   Overcast
12:49 PM 51.8 °F - 50.0 °F 94% 29.40 in 2.0 mi ESE 4.6 mph - 0.01 in   Overcast
12:53 PM 52.0 °F - 50.0 °F 93% 29.39 in 1.8 mi ESE 4.6 mph - 0.01 in   Overcast
1:14 PM 51.8 °F - 50.0 °F 94% 29.39 in 2.5 mi SSE 3.5 mph - N/A   Overcast
1:23 PM 51.8 °F - 50.0 °F 94% 29.38 in 4.0 mi Calm Calm - N/A   Overcast
1:53 PM 52.0 °F - 48.9 °F 89% 29.37 in 10.0 mi SW 4.6 mph - N/A   Overcast
2:04 PM 51.8 °F - 50.0 °F 94% 29.39 in 2.0 mi SSW 6.9 mph - N/A   Overcast
2:40 PM 51.8 °F - 50.0 °F 94% 29.40 in 2.0 mi SW 4.6 mph - N/A   Overcast
2:53 PM 52.0 °F - 48.9 °F 89% 29.39 in 2.0 mi SW 8.1 mph - 0.00 in   Overcast
3:20 PM 50.0 °F - 46.4 °F 87% 29.40 in 2.0 mi WSW 8.1 mph - N/A   Overcast
3:53 PM 46.9 °F - 45.0 °F 93% 29.39 in 2.0 mi West 6.9 mph - N/A   Overcast
4:53 PM 45.0 °F 40.1 °F 43.0 °F 93% 29.39 in 1.8 mi West 9.2 mph - N/A   Overcast
5:53 PM 44.1 °F 39.0 °F 42.1 °F 93% 29.39 in 2.0 mi West 9.2 mph - N/A   Overcast
6:53 PM 43.0 °F 37.7 °F 39.9 °F 89% 29.40 in 9.0 mi West 9.2 mph - N/A   Overcast
7:53 PM 42.1 °F 37.1 °F 39.9 °F 92% 29.41 in 8.0 mi West 8.1 mph - N/A   Overcast
8:53 PM 42.1 °F 36.6 °F 39.0 °F 89% 29.41 in 10.0 mi West 9.2 mph - N/A   Overcast
9:53 PM 42.1 °F 36.6 °F 39.0 °F 89% 29.40 in 10.0 mi West 9.2 mph - N/A   Overcast
10:53 PM 42.1 °F 36.1 °F 39.0 °F 89% 29.41 in 10.0 mi WNW 10.4 mph - N/A   Overcast
11:53 PM 42.1 °F 36.6 °F 39.0 °F 89% 29.41 in 9.0 mi WNW 9.2 mph - N/A   Overcast